TIME,DELAY(SENSOR),PRES,OXYGEN,RAWTEMP,T(OPTODE),TCPHASE,FLUOR,BETA(BETA700),BETA(BETA412),BETA(BETA440),CDOM,C(CSC),ED(ED412.20),ED(ED444.00),ED(ED489.60),ED(ED554.30),LU(LU412.10),LU(LU443.90),LU(LU489.70),LU(LU554.70),COMP,TILTX,TILTY,CHECK
1335411656,5809,882.4899902343750000,39.6053695678710940,567.2393798828125000,4.2613139152526855,55.6478500366210940,55,101,102,80,83,15469,0,0,0,0,2147120402,2147780882,2147574710,2147569600,2148,2,13,3095
1335415252,5808,954.5999755859375000,44.2290191650390600,573.0595092773438000,4.0804457664489750,55.0376205444335940,55,109,101,79,84,15476,0,0,0,0,2147121536,2147777508,2147578560,2147570925,3146,2,13,40635
1335418852,5807,974.6300048828125000,46.3111305236816400,575.2811889648438000,4.0113258361816410,54.7606582641601560,55,100,103,79,81,15465,0,0,0,0,2147129481,2147781110,2147577133,2147571556,376,2,13,50866
1335422452,5809,983.6599731445312000,46.1025810241699200,575.4152221679688000,4.0071539878845215,54.7988700866699200,55,102,102,80,83,15472,0,0,0,0,2147126208,2147776274,2147575049,2147571254,101,2,13,13605
1335426052,5811,990.9199829101562000,45.8660812377929700,575.2796020507812000,4.0113749504089355,54.8310203552246100,54,102,102,79,83,15475,0,0,0,0,2147125037,2147786349,2147577380,2147572388,3235,2,13,22058
1335429652,5809,992.5900268554688000,45.7022285461425800,575.2687988281250000,4.0117111206054690,54.8494911193847660,54,113,101,78,85,15473,0,0,0,0,2147124900,2147780352,2147576109,2147572681,3310,2,13,2015
1335433252,5810,992.7299804687500000,45.1483306884765600,575.2409057617188000,4.0125808715820310,54.9311218261718750,55,100,101,79,83,15473,0,0,0,0,2147124443,2147781321,2147579456,2147573302,212,2,13,16948
1335436852,5807,993.1599731445312000,45.1713600158691400,575.2371215820312000,4.0126991271972660,54.9271888732910160,54,100,102,80,83,15472,0,0,0,0,2147126290,2147781348,2147578057,2147571200,3570,2,13,49157
1335440452,5809,993.3900146484375000,44.6635513305664060,575.3992919921875000,4.0076498985290530,54.9988098144531250,54,100,102,78,83,15469,0,0,0,0,2147125622,2147777115,2147576749,2147569033,133,2,13,730
1335444052,5809,991.6799926757812000,45.2489814758300800,576.0269775390625000,3.9881129264831543,54.9262199401855500,55,100,102,80,83,15472,0,0,0,0,2147124434,2147780233,2147576411,2147572617,3189,2,13,37372
1335447652,5810,991.0700073242188000,45.4594612121582000,575.6948242187500000,3.9984529018402100,54.8893394470214840,55,100,102,80,83,15470,0,0,0,0,2147125924,2147777152,2147575350,2147573129,220,2,13,11385
1335451252,5810,996.7399902343750000,44.8501396179199200,576.2857055664062000,3.9800610542297363,54.9797897338867200,55,101,103,79,84,15466,0,0,0,0,2147126665,2147774116,2147576301,2147572480,98,2,13,2273
1335454852,5811,993.7000122070312000,45.2123794555664060,575.8344116210938000,3.9941079616546630,54.9251213073730500,54,100,103,79,83,15467,0,0,0,0,2147125504,2147775963,2147573641,2147569133,870,2,13,56771
1335458452,5809,1001.0700073242188000,44.8592605590820300,575.2448730468750000,4.0124549865722660,54.9724502563476560,55,100,102,77,84,15468,0,0,0,0,2147123401,2147780992,2147576621,2147573760,3592,2,13,7683
1335462052,5806,999.1799926757812000,44.8323593139648440,575.7125854492188000,3.9978981018066406,54.9762001037597660,56,99,101,78,85,15469,0,0,0,0,2147123885,2147777426,2147579465,2147572900,292,2,13,26662
1335465652,5810,990.3300170898438000,44.9422798156738300,576.7235717773438000,3.9664289951324463,54.9751091003418000,55,101,102,79,82,15468,0,0,0,0,2147125321,2147775954,2147576045,2147571538,2977,2,13,33714
1335469252,5809,996.3699951171875000,46.3899917602539060,577.3037719726562000,3.9483621120452880,54.7746391296386700,55,102,103,78,83,15470,0,0,0,0,2147122797,2147774418,2147576548,2147575414,573,2,13,3923
1335472852,5819,998.4199829101562000,45.6332397460937500,576.9973754882812000,3.9579050540924072,54.8814086914062500,56,104,102,79,84,15463,0,0,0,0,2147125586,2147779913,2147577097,2147573010,2698,2,13,32022
1335476452,5808,1000.7000122070312000,45.7530593872070300,576.9238891601562000,3.9601919651031494,54.8605003356933600,55,100,100,78,84,15465,0,0,0,0,2147127378,2147777216,2147579465,2147573632,3430,2,13,42987
1335480052,5810,1005.2299804687500000,46.0335388183593750,576.6301269531250000,3.9693388938903810,54.8165702819824200,55,103,101,79,82,15468,0,0,0,0,2147125595,2147777408,2147576649,2147571584,2945,2,13,6866
1335483652,5810,1000.6199951171875000,45.7760505676269500,576.5891113281250000,3.9706170558929443,54.8529014587402340,53,114,102,79,83,15464,0,0,0,0,2147128868,2147775497,2147578240,2147572690,3430,2,13,46161
1335487252,5811,994.4899902343750000,45.8219108581543000,577.2509155273438000,3.9500100612640380,54.8588409423828100,55,101,102,78,85,15462,0,0,0,0,2147125714,2147773741,2147579209,2147573568,726,2,13,24314
1335490852,5807,1006.3200073242188000,46.1293601989746100,576.7109985351562000,3.9668219089508057,54.8059196472168000,55,99,102,79,83,15464,0,0,0,0,2147127067,2147780626,2147577170,2147572708,3219,2,13,8404
1335494452,5810,1003.0700073242188000,44.9801597595214840,576.6734008789062000,3.9679911136627197,54.9656906127929700,55,100,100,78,83,15457,0,0,0,0,2147128612,2147776054,2147578870,2147572571,142,2,13,37706
1335498052,5810,1008.4000244140625000,42.9373703002929700,576.2429199218750000,3.9813919067382812,55.2540206909179700,55,100,100,78,84,15459,0,0,0,0,2147123556,2147776685,2147575241,2147575780,3417,2,13,42730
1335501652,5810,1003.8800048828125000,42.9083404541015600,576.3383789062500000,3.9784200191497803,55.2588882446289060,55,101,100,78,84,15458,0,0,0,0,2147128064,2147780361,2147574454,2147572480,3501,2,13,23734
1335505252,5812,1004.3099975585938000,46.2244796752929700,577.0197143554688000,3.9572110176086426,54.7986717224121100,54,107,101,77,85,15460,0,0,0,0,2147127689,2147775488,2147572909,2147572434,255,2,13,42531
1335508852,5811,1002.5700073242188000,45.2651405334472660,576.9738769531250000,3.9586329460144043,54.9311294555664060,56,103,102,78,84,15457,0,0,0,0,2147127899,2147771757,2147576612,2147570916,95,2,13,47101
1335512452,5813,994.1900024414062000,45.4110908508300800,578.6475830078125000,3.9065110683441160,54.9267692565918000,56,101,102,77,83,15456,0,0,0,0,2147127890,2147774244,2147573110,2147573897,74,2,13,60316
1335516052,5807,997.5200195312500000,46.0413017272949200,579.1918945312500000,3.8895568847656250,54.8450584411621100,55,98,101,79,83,15451,0,0,0,0,2147126875,2147779273,2147572635,2147575058,213,2,13,1441
1335519652,5810,997.9299926757812000,46.3070182800293000,579.2233886718750000,3.8885750770568848,54.8113517761230500,54,98,101,79,83,15455,0,0,0,0,2147128320,2147773394,2147578852,2147570541,296,2,13,10515
1335523252,5810,1004.6599731445312000,47.5242118835449200,578.6550903320312000,3.9062790870666504,54.6315116882324200,55,99,101,77,84,15447,0,0,0,0,2147127369,2147774473,2147577353,2147572553,3208,2,13,49630
1335526852,5810,1004.1500244140625000,45.5840415954589840,576.9354858398438000,3.9598309993743896,54.8823089599609400,55,99,102,78,82,15452,0,0,0,0,2147124022,2147774957,2147578249,2147570898,313,2,13,10848
1335530452,5809,1005.0700073242188000,45.8298988342285160,577.5739746093750000,3.9399509429931640,54.8602104187011700,55,98,102,78,84,15451,0,0,0,0,2147127488,2147776329,2147574866,2147571501,3092,2,13,60299
1335534052,5811,1005.3499755859375000,45.2206497192382800,577.1558227539062000,3.9529719352722170,54.9430503845214840,55,100,101,80,84,15447,0,0,0,0,2147125686,2147776438,2147576557,2147570825,63,2,13,28902
1335537652,5811,997.5499877929688000,45.3719596862793000,577.3748168945312000,3.9461541175842285,54.9228096008300800,54,101,101,78,84,15451,0,0,0,0,2147127808,2147774299,2147572790,2147570148,3331,2,13,43253
1335541252,5811,1008.0900268554688000,46.2755088806152340,578.4874267578125000,3.9115030765533447,54.8084907531738300,56,99,102,77,83,15450,0,0,0,0,2147128301,2147773531,2147574646,2147571392,135,2,13,65328
1335544852,5810,1002.7399902343750000,45.5847892761230500,576.8618164062500000,3.9621279239654540,54.8839187622070300,54,100,102,79,84,15451,0,0,0,0,2147125696,2147777700,2147579090,2147571858,902,2,13,9279
1335548452,5812,1009.4799804687500000,45.2280197143554700,577.0341186523438000,3.9567620754241943,54.9337615966796900,54,99,101,79,85,15452,0,0,0,0,2147123510,2147778020,2147570816,2147571913,4,2,13,61182
1335552052,5809,1002.2299804687500000,45.6777610778808600,576.7136840820312000,3.9667360782623290,54.8719787597656250,54,100,100,78,84,15449,0,0,0,0,2147126336,2147774363,2147578788,2147571401,3539,2,13,64479
1335555652,5808,999.9299926757812000,45.9573211669921900,578.3939208984375000,3.9144148826599120,54.8481216430664060,55,100,102,80,83,15447,0,0,0,0,2147125184,2147772864,2147574957,2147571602,370,2,13,45227
1335556256,5812,1003.7199707031250000,45.6010818481445300,578.6110839843750000,3.9076499938964844,54.9016609191894500,55,99,103,79,84,15450,0,0,0,0,2147128265,2147777965,2147577417,2147571291,3323,2,13,19528
